GLO1349 SBVT-SBSP

Flight info

Callsign GLO1349
Flight time 1h 17m
Altitude 36000
Route MABSI UZ44 ADA UZ45 IBDAL
Aircraft B738/M-SDE2E3FGHIRWXY/LB1

Departure

Time 2026-05-05 23:49
Airport Eurico de Aguiar Salles International Airport (SBVT)

Arrival

Time 2026-05-06 01:06
Airport Congonhas–Deputado Freitas Nobre Airport (SBSP)
Time Latitude Longitude Altitude Speed Heading
2026-05-05 23:32 -20.26534 -40.28168 34 ft 0 kts 262°
2026-05-05 23:39 -20.26531 -40.28152 33 ft 4 kts 261°
2026-05-05 23:39 -20.26528 -40.28124 31 ft 4 kts 274°
2026-05-05 23:39 -20.26536 -40.28101 33 ft 4 kts 327°
2026-05-05 23:39 -20.26553 -40.28094 33 ft 0 kts 352°
2026-05-05 23:42 -20.26546 -40.28095 34 ft 3 kts 352°
2026-05-05 23:42 -20.26507 -40.28099 34 ft 8 kts
2026-05-05 23:43 -20.26435 -40.28076 34 ft 13 kts 18°
2026-05-05 23:43 -20.26337 -40.28065 31 ft 14 kts 354°
2026-05-05 23:43 -20.26240 -40.28078 34 ft 14 kts 352°
2026-05-05 23:43 -20.26147 -40.28092 32 ft 13 kts 353°
2026-05-05 23:44 -20.26087 -40.28100 34 ft 13 kts 352°
2026-05-05 23:44 -20.25999 -40.28113 35 ft 13 kts 353°
2026-05-05 23:44 -20.25901 -40.28126 34 ft 16 kts 353°
2026-05-05 23:44 -20.25787 -40.28144 34 ft 16 kts 352°
2026-05-05 23:45 -20.25676 -40.28161 34 ft 16 kts 351°
2026-05-05 23:45 -20.25570 -40.28178 32 ft 15 kts 351°
2026-05-05 23:45 -20.25464 -40.28194 29 ft 16 kts 353°
2026-05-05 23:45 -20.25344 -40.28211 27 ft 19 kts 352°
2026-05-05 23:46 -20.25213 -40.28231 22 ft 17 kts 352°
2026-05-05 23:46 -20.25125 -40.28238 23 ft 12 kts
2026-05-05 23:46 -20.25055 -40.28196 24 ft 11 kts 32°
2026-05-05 23:46 -20.24989 -40.28152 27 ft 11 kts 32°
2026-05-05 23:47 -20.24920 -40.28109 24 ft 12 kts 21°
2026-05-05 23:47 -20.24838 -40.28093 23 ft 11 kts 27°
2026-05-05 23:47 -20.24781 -40.28089 23 ft 9 kts 315°
2026-05-05 23:47 -20.24802 -40.28111 23 ft 7 kts 185°
2026-05-05 23:48 -20.24812 -40.28110 26 ft 0 kts 174°
2026-05-05 23:48 -20.24974 -40.28087 28 ft 60 kts 171°
2026-05-05 23:48 -20.25644 -40.27988 36 ft 131 kts 172°
2026-05-05 23:48 -20.26674 -40.27829 400 ft 157 kts 173°
2026-05-05 23:49 -20.27770 -40.27671 1166 ft 163 kts 173°
2026-05-05 23:49 -20.28885 -40.27508 1991 ft 165 kts 172°
2026-05-05 23:49 -20.30117 -40.27327 2379 ft 196 kts 172°
2026-05-05 23:49 -20.31571 -40.27112 2632 ft 225 kts 171°
2026-05-05 23:50 -20.33210 -40.26869 2861 ft 250 kts 171°
2026-05-05 23:50 -20.34977 -40.26609 3517 ft 261 kts 173°
2026-05-05 23:50 -20.36785 -40.26814 4375 ft 268 kts 201°
2026-05-05 23:50 -20.38305 -40.27974 5221 ft 275 kts 229°
2026-05-05 23:51 -20.39619 -40.29442 6110 ft 274 kts 211°
2026-05-05 23:51 -20.41304 -40.30359 7042 ft 272 kts 204°
2026-05-05 23:51 -20.43041 -40.31227 7807 ft 278 kts 204°
2026-05-05 23:51 -20.44786 -40.32118 8580 ft 283 kts 205°
2026-05-05 23:52 -20.46565 -40.33044 9405 ft 287 kts 206°
2026-05-05 23:52 -20.48360 -40.33992 10218 ft 291 kts 206°
2026-05-05 23:52 -20.50207 -40.34979 10696 ft 307 kts 206°
2026-05-05 23:52 -20.52192 -40.36046 10860 ft 332 kts 207°
2026-05-05 23:53 -20.54314 -40.37194 11175 ft 349 kts 207°
2026-05-05 23:53 -20.56505 -40.38384 11737 ft 357 kts 207°
2026-05-05 23:53 -20.58731 -40.39595 12416 ft 361 kts 207°
2026-05-05 23:53 -20.60978 -40.40819 13137 ft 364 kts 207°
2026-05-05 23:54 -20.63254 -40.42061 13818 ft 369 kts 207°
2026-05-05 23:54 -20.65559 -40.43319 14462 ft 374 kts 207°
2026-05-05 23:54 -20.67881 -40.44587 15143 ft 376 kts 207°
2026-05-05 23:54 -20.70217 -40.45863 15840 ft 379 kts 206°
2026-05-05 23:55 -20.72571 -40.47150 16515 ft 382 kts 206°
2026-05-05 23:55 -20.74948 -40.48449 17175 ft 386 kts 206°
2026-05-05 23:55 -20.77352 -40.49763 17819 ft 389 kts 206°
2026-05-05 23:55 -20.79774 -40.51088 18467 ft 393 kts 205°
2026-05-05 23:56 -20.82217 -40.52426 19025 ft 396 kts 205°
2026-05-05 23:56 -20.84676 -40.53772 19586 ft 399 kts 205°
2026-05-05 23:56 -20.87153 -40.55129 20172 ft 401 kts 205°
2026-05-05 23:56 -20.89647 -40.56496 20759 ft 403 kts 206°
2026-05-05 23:57 -20.92055 -40.58052 21319 ft 407 kts 213°
2026-05-05 23:57 -20.94330 -40.59880 21873 ft 410 kts 217°
2026-05-05 23:57 -20.96562 -40.61792 22422 ft 413 kts 217°
2026-05-05 23:57 -20.98807 -40.63720 22961 ft 415 kts 217°
2026-05-05 23:58 -21.01082 -40.65643 23496 ft 418 kts 216°
2026-05-05 23:58 -21.03385 -40.67556 23966 ft 420 kts 216°
2026-05-05 23:58 -21.05662 -40.69426 24411 ft 422 kts 216°
2026-05-05 23:58 -21.07999 -40.71337 24856 ft 423 kts 216°
2026-05-05 23:59 -21.10314 -40.73228 25306 ft 425 kts 216°
2026-05-05 23:59 -21.12700 -40.75178 25760 ft 427 kts 216°
2026-05-05 23:59 -21.15063 -40.77113 26179 ft 429 kts 217°
2026-05-05 23:59 -21.17407 -40.79036 26600 ft 430 kts 217°
2026-05-06 00:00 -21.19788 -40.80991 27022 ft 432 kts 217°
2026-05-06 00:00 -21.22182 -40.82958 27429 ft 434 kts 217°
2026-05-06 00:00 -21.24577 -40.84927 27846 ft 435 kts 217°
2026-05-06 00:00 -21.26984 -40.86906 28256 ft 437 kts 217°
2026-05-06 00:01 -21.29400 -40.88894 28632 ft 439 kts 217°
2026-05-06 00:01 -21.31833 -40.90896 28993 ft 441 kts 217°
2026-05-06 00:01 -21.34273 -40.92905 29350 ft 443 kts 217°
2026-05-06 00:01 -21.36725 -40.94924 29718 ft 445 kts 218°
2026-05-06 00:02 -21.39182 -40.96948 30084 ft 446 kts 218°
2026-05-06 00:02 -21.41646 -40.98979 30539 ft 445 kts 218°
2026-05-06 00:02 -21.44090 -41.00994 31061 ft 441 kts 218°
2026-05-06 00:02 -21.46508 -41.02989 31597 ft 437 kts 218°
2026-05-06 00:03 -21.48916 -41.04978 32027 ft 435 kts 218°
2026-05-06 00:03 -21.51316 -41.06961 32392 ft 435 kts 218°
2026-05-06 00:03 -21.53683 -41.08917 32779 ft 434 kts 218°
2026-05-06 00:03 -21.56075 -41.10895 33213 ft 432 kts 218°
2026-05-06 00:04 -21.58449 -41.12859 33678 ft 430 kts 218°
2026-05-06 00:04 -21.60815 -41.14817 34100 ft 428 kts 218°
2026-05-06 00:04 -21.63172 -41.16768 34455 ft 427 kts 218°
2026-05-06 00:04 -21.65524 -41.18717 34804 ft 426 kts 218°
2026-05-06 00:05 -21.70226 -41.22614 35393 ft 426 kts 218°
2026-05-06 00:05 -21.72571 -41.24559 35688 ft 425 kts 218°
2026-05-06 00:05 -21.74913 -41.26510 36005 ft 425 kts 218°
2026-05-06 00:06 -21.77242 -41.28466 36231 ft 426 kts 219°
2026-05-06 00:06 -21.81943 -41.32431 36216 ft 430 kts 219°
2026-05-06 00:07 -21.86621 -41.36377 36203 ft 422 kts 218°
2026-05-06 00:07 -21.91225 -41.40260 36220 ft 420 kts 218°
2026-05-06 00:08 -21.95801 -41.44123 36228 ft 420 kts 218°
2026-05-06 00:08 -22.00406 -41.48013 36225 ft 421 kts 218°
2026-05-06 00:09 -22.05019 -41.51914 36221 ft 421 kts 219°
2026-05-06 00:09 -22.09628 -41.55822 36222 ft 422 kts 219°
2026-05-06 00:10 -22.14244 -41.59742 36222 ft 422 kts 218°
2026-05-06 00:10 -22.18860 -41.63666 36216 ft 423 kts 218°
2026-05-06 00:11 -22.23486 -41.67601 36221 ft 423 kts 218°
2026-05-06 00:11 -22.28107 -41.71535 36213 ft 423 kts 218°
2026-05-06 00:12 -22.32725 -41.75469 36212 ft 422 kts 218°
2026-05-06 00:12 -22.37493 -41.79160 36209 ft 422 kts 213°
2026-05-06 00:13 -22.42477 -41.82497 36222 ft 421 kts 212°
2026-05-06 00:13 -22.47458 -41.85838 36213 ft 420 kts 213°
2026-05-06 00:14 -22.52396 -41.89205 36222 ft 419 kts 213°
2026-05-06 00:14 -22.57315 -41.92579 36213 ft 418 kts 213°
2026-05-06 00:15 -22.62220 -41.95947 36218 ft 417 kts 213°
2026-05-06 00:15 -22.67091 -41.99291 36209 ft 417 kts 213°
2026-05-06 00:16 -22.71927 -42.02743 36213 ft 416 kts 214°
2026-05-06 00:16 -22.76742 -42.06222 36215 ft 416 kts 214°
2026-05-06 00:17 -22.81039 -42.10376 36224 ft 416 kts 230°
2026-05-06 00:17 -22.84064 -42.15713 36221 ft 418 kts 243°
2026-05-06 00:18 -22.86476 -42.21451 36207 ft 418 kts 244°
2026-05-06 00:18 -22.88875 -42.27211 36209 ft 418 kts 244°
2026-05-06 00:19 -22.91296 -42.32955 36208 ft 419 kts 243°
2026-05-06 00:19 -22.93729 -42.38695 36207 ft 419 kts 243°
2026-05-06 00:20 -22.96166 -42.44439 36208 ft 419 kts 243°
2026-05-06 00:20 -22.98600 -42.50181 36209 ft 419 kts 243°
2026-05-06 00:21 -23.01031 -42.55926 36204 ft 419 kts 243°
2026-05-06 00:21 -23.03452 -42.61656 36193 ft 419 kts 243°
2026-05-06 00:22 -23.05877 -42.67400 36197 ft 418 kts 243°
2026-05-06 00:22 -23.08297 -42.73140 36207 ft 418 kts 243°
2026-05-06 00:23 -23.10714 -42.78880 36197 ft 418 kts 243°
2026-05-06 00:23 -23.13113 -42.84584 36196 ft 417 kts 243°
2026-05-06 00:24 -23.15539 -42.90360 36194 ft 417 kts 243°
2026-05-06 00:24 -23.17928 -42.96054 36193 ft 417 kts 243°
2026-05-06 00:25 -23.20331 -43.01788 36194 ft 416 kts 243°
2026-05-06 00:25 -23.22728 -43.07516 36194 ft 416 kts 243°
2026-05-06 00:26 -23.25121 -43.13241 36194 ft 416 kts 243°
2026-05-06 00:26 -23.27512 -43.18971 36190 ft 415 kts 243°
2026-05-06 00:27 -23.29496 -43.23727 36191 ft 415 kts 243°
2026-05-06 00:27 -23.31568 -43.29589 36192 ft 418 kts 253°
2026-05-06 00:28 -23.32982 -43.35725 36183 ft 418 kts 253°
2026-05-06 00:28 -23.34387 -43.41862 36193 ft 418 kts 253°
2026-05-06 00:29 -23.35810 -43.47990 36188 ft 418 kts 253°
2026-05-06 00:29 -23.37241 -43.54114 36186 ft 417 kts 253°
2026-05-06 00:30 -23.38671 -43.60235 36184 ft 417 kts 253°
2026-05-06 00:30 -23.40097 -43.66351 36186 ft 417 kts 253°
2026-05-06 00:31 -23.41521 -43.72472 36187 ft 417 kts 253°
2026-05-06 00:31 -23.42942 -43.78592 36194 ft 417 kts 253°
2026-05-06 00:32 -23.44360 -43.84712 36180 ft 417 kts 253°
2026-05-06 00:32 -23.45775 -43.90828 36185 ft 416 kts 253°
2026-05-06 00:33 -23.47186 -43.96937 36183 ft 416 kts 253°
2026-05-06 00:33 -23.48592 -44.03039 36178 ft 415 kts 253°
2026-05-06 00:34 -23.49994 -44.09136 36183 ft 415 kts 253°
2026-05-06 00:34 -23.51394 -44.15233 36184 ft 414 kts 253°
2026-05-06 00:35 -23.52792 -44.21325 36185 ft 414 kts 253°
2026-05-06 00:35 -23.54182 -44.27380 36184 ft 414 kts 253°
2026-05-06 00:36 -23.55582 -44.33498 36186 ft 413 kts 253°
2026-05-06 00:36 -23.56971 -44.39578 36185 ft 413 kts 253°
2026-05-06 00:37 -23.58356 -44.45655 36185 ft 413 kts 253°
2026-05-06 00:37 -23.59739 -44.51733 36185 ft 413 kts 253°
2026-05-06 00:38 -23.61119 -44.57807 36192 ft 413 kts 253°
2026-05-06 00:38 -23.62496 -44.63883 36182 ft 413 kts 253°
2026-05-06 00:39 -23.63869 -44.69954 36182 ft 412 kts 253°
2026-05-06 00:39 -23.65241 -44.76030 36179 ft 412 kts 253°
2026-05-06 00:40 -23.66610 -44.82102 35997 ft 415 kts 252°
2026-05-06 00:40 -23.67301 -44.85168 35484 ft 416 kts 253°
2026-05-06 00:40 -23.67989 -44.88230 34856 ft 415 kts 253°
2026-05-06 00:40 -23.68675 -44.91289 34230 ft 416 kts 253°
2026-05-06 00:41 -23.69360 -44.94341 33704 ft 412 kts 253°
2026-05-06 00:41 -23.70028 -44.97326 33199 ft 408 kts 253°
2026-05-06 00:41 -23.70707 -45.00364 32708 ft 404 kts 253°
2026-05-06 00:41 -23.71370 -45.03326 32241 ft 401 kts 253°
2026-05-06 00:42 -23.72020 -45.06237 31789 ft 397 kts 253°
2026-05-06 00:42 -23.72672 -45.09157 31337 ft 394 kts 254°
2026-05-06 00:42 -23.73317 -45.12045 30897 ft 391 kts 254°
2026-05-06 00:42 -23.73959 -45.14927 30453 ft 388 kts 254°
2026-05-06 00:43 -23.74595 -45.17780 29972 ft 386 kts 254°
2026-05-06 00:43 -23.75226 -45.20615 29471 ft 383 kts 254°
2026-05-06 00:43 -23.75853 -45.23436 28979 ft 379 kts 254°
2026-05-06 00:43 -23.76474 -45.26225 28522 ft 376 kts 254°
2026-05-06 00:44 -23.77089 -45.28986 28080 ft 373 kts 254°
2026-05-06 00:44 -23.77698 -45.31723 27628 ft 370 kts 254°
2026-05-06 00:44 -23.78305 -45.34446 27189 ft 368 kts 255°
2026-05-06 00:44 -23.78906 -45.37155 26751 ft 366 kts 255°
2026-05-06 00:45 -23.79504 -45.39850 26320 ft 364 kts 255°
2026-05-06 00:45 -23.79958 -45.42561 25949 ft 362 kts 262°
2026-05-06 00:45 -23.80151 -45.45308 25609 ft 365 kts 265°
2026-05-06 00:45 -23.80262 -45.48129 25256 ft 378 kts 266°
2026-05-06 00:46 -23.80359 -45.51029 24883 ft 384 kts 266°
2026-05-06 00:46 -23.80465 -45.53946 24516 ft 383 kts 266°
2026-05-06 00:46 -23.80583 -45.56842 24134 ft 380 kts 266°
2026-05-06 00:46 -23.80712 -45.59712 23767 ft 376 kts 266°
2026-05-06 00:47 -23.80848 -45.62550 23360 ft 373 kts 266°
2026-05-06 00:47 -23.80987 -45.65364 22968 ft 369 kts 266°
2026-05-06 00:47 -23.81126 -45.68150 22603 ft 366 kts 266°
2026-05-06 00:47 -23.81266 -45.70921 22242 ft 363 kts 266°
2026-05-06 00:48 -23.81405 -45.73666 21895 ft 361 kts 266°
2026-05-06 00:48 -23.81543 -45.76416 21553 ft 364 kts 266°
2026-05-06 00:48 -23.81681 -45.79158 21217 ft 367 kts 266°
2026-05-06 00:48 -23.81819 -45.81936 20863 ft 366 kts 266°
2026-05-06 00:49 -23.81957 -45.84702 20510 ft 364 kts 266°
2026-05-06 00:49 -23.82093 -45.87453 20160 ft 362 kts 266°
2026-05-06 00:49 -23.82228 -45.90196 19814 ft 361 kts 266°
2026-05-06 00:49 -23.82362 -45.92923 19471 ft 359 kts 266°
2026-05-06 00:50 -23.82496 -45.95650 19109 ft 359 kts 266°
2026-05-06 00:50 -23.82628 -45.98368 18768 ft 358 kts 266°
2026-05-06 00:50 -23.82760 -46.01085 18400 ft 358 kts 266°
2026-05-06 00:50 -23.82892 -46.03797 18022 ft 356 kts 266°
2026-05-06 00:51 -23.83022 -46.06492 17661 ft 355 kts 266°
2026-05-06 00:51 -23.83151 -46.09177 17320 ft 353 kts 266°
2026-05-06 00:51 -23.83279 -46.11845 16980 ft 351 kts 266°
2026-05-06 00:51 -23.83406 -46.14502 16641 ft 349 kts 266°
2026-05-06 00:52 -23.83531 -46.17138 16300 ft 347 kts 265°
2026-05-06 00:52 -23.83656 -46.19769 15971 ft 346 kts 266°
2026-05-06 00:52 -23.83780 -46.22385 15643 ft 344 kts 266°
2026-05-06 00:52 -23.83904 -46.24997 15305 ft 343 kts 266°
2026-05-06 00:53 -23.84028 -46.27595 14988 ft 342 kts 266°
2026-05-06 00:53 -23.84150 -46.30193 14658 ft 342 kts 266°
2026-05-06 00:53 -23.84274 -46.32790 14317 ft 342 kts 266°
2026-05-06 00:53 -23.84396 -46.35384 13988 ft 343 kts 265°
2026-05-06 00:54 -23.84517 -46.37976 13627 ft 339 kts 266°
2026-05-06 00:54 -23.84634 -46.40495 13299 ft 334 kts 266°
2026-05-06 00:54 -23.84751 -46.43009 12974 ft 329 kts 266°
2026-05-06 00:54 -23.84865 -46.45495 12654 ft 327 kts 266°
2026-05-06 00:55 -23.84980 -46.47974 12347 ft 325 kts 266°
2026-05-06 00:55 -23.85093 -46.50435 12036 ft 323 kts 266°
2026-05-06 00:55 -23.85206 -46.52878 11731 ft 322 kts 266°
2026-05-06 00:55 -23.85317 -46.55319 11426 ft 321 kts 266°
2026-05-06 00:56 -23.85428 -46.57748 11123 ft 319 kts 267°
2026-05-06 00:56 -23.85481 -46.60154 10811 ft 316 kts 275°
2026-05-06 00:56 -23.84814 -46.62406 10503 ft 312 kts 302°
2026-05-06 00:56 -23.83417 -46.64170 10229 ft 306 kts 323°
2026-05-06 00:57 -23.81676 -46.65419 10225 ft 292 kts 328°
2026-05-06 00:57 -23.79961 -46.66584 9732 ft 296 kts 328°
2026-05-06 00:57 -23.78229 -46.67768 9509 ft 291 kts 328°
2026-05-06 00:57 -23.76541 -46.68928 9377 ft 283 kts 329°
2026-05-06 00:58 -23.74882 -46.70075 9306 ft 282 kts 328°
2026-05-06 00:58 -23.73229 -46.71220 9291 ft 282 kts 328°
2026-05-06 00:58 -23.71574 -46.72368 9226 ft 285 kts 329°
2026-05-06 00:58 -23.69876 -46.73545 8883 ft 291 kts 328°
2026-05-06 00:59 -23.68174 -46.74725 8560 ft 289 kts 329°
2026-05-06 00:59 -23.66457 -46.75915 8032 ft 296 kts 328°
2026-05-06 00:59 -23.64741 -46.77104 7643 ft 288 kts 329°
2026-05-06 00:59 -23.63091 -46.78248 7326 ft 279 kts 329°
2026-05-06 01:00 -23.61473 -46.79369 7005 ft 272 kts 329°
2026-05-06 01:00 -23.59897 -46.80461 6700 ft 265 kts 329°
2026-05-06 01:00 -23.58262 -46.81251 6374 ft 254 kts 354°
2026-05-06 01:00 -23.56595 -46.81067 6160 ft 234 kts 23°
2026-05-06 01:01 -23.55243 -46.80220 5894 ft 217 kts 42°
2026-05-06 01:01 -23.54277 -46.79018 5668 ft 206 kts 57°
2026-05-06 01:01 -23.53513 -46.77735 5506 ft 195 kts 59°
2026-05-06 01:01 -23.52817 -46.76537 5456 ft 179 kts 59°
2026-05-06 01:02 -23.52158 -46.75375 5107 ft 182 kts 65°
2026-05-06 01:02 -23.52019 -46.74067 4857 ft 175 kts 111°
2026-05-06 01:02 -23.52708 -46.73007 4707 ft 174 kts 128°
2026-05-06 01:02 -23.53571 -46.72078 4485 ft 174 kts 139°
2026-05-06 01:03 -23.54535 -46.71288 4267 ft 172 kts 143°
2026-05-06 01:03 -23.55508 -46.70596 4067 ft 162 kts 144°
2026-05-06 01:03 -23.56406 -46.69976 3865 ft 152 kts 144°
2026-05-06 01:03 -23.57275 -46.69376 3718 ft 147 kts 144°
2026-05-06 01:04 -23.58109 -46.68799 3562 ft 138 kts 144°
2026-05-06 01:04 -23.58903 -46.68248 3353 ft 134 kts 145°
2026-05-06 01:04 -23.59712 -46.67701 3187 ft 142 kts 146°
2026-05-06 01:04 -23.60045 -46.67465 3113 ft 143 kts 145°
2026-05-06 01:05 -23.60585 -46.67086 2981 ft 143 kts 145°
2026-05-06 01:05 -23.61319 -46.66580 2804 ft 143 kts 146°
2026-05-06 01:05 -23.62154 -46.66003 2636 ft 142 kts 146°
2026-05-06 01:05 -23.62906 -46.65477 2608 ft 108 kts 148°
2026-05-06 01:06 -23.63307 -46.65206 2607 ft 24 kts 160°
2026-05-06 01:06 -23.63386 -46.65214 2604 ft 15 kts 214°
2026-05-06 01:06 -23.63372 -46.65302 2601 ft 11 kts 329°
2026-05-06 01:06 -23.63309 -46.65343 2601 ft 10 kts 329°
2026-05-06 01:07 -23.63269 -46.65372 2601 ft 10 kts 326°
2026-05-06 01:07 -23.63193 -46.65427 2601 ft 10 kts 327°
2026-05-06 01:07 -23.63136 -46.65467 2601 ft 10 kts 327°
2026-05-06 01:07 -23.63080 -46.65506 2601 ft 9 kts 327°
2026-05-06 01:08 -23.63017 -46.65521 2602 ft 9 kts 350°
2026-05-06 01:08 -23.62969 -46.65545 2602 ft 9 kts 326°
2026-05-06 01:08 -23.62926 -46.65575 2602 ft 9 kts 327°
2026-05-06 01:09 -23.62870 -46.65613 2822 ft 10 kts 328°
2026-05-06 01:09 -23.62814 -46.65653 2602 ft 10 kts 327°
2026-05-06 01:09 -23.62758 -46.65693 2601 ft 10 kts 328°
2026-05-06 01:09 -23.62681 -46.65747 2601 ft 10 kts 327°
2026-05-06 01:10 -23.62654 -46.65767 2601 ft 5 kts 314°
2026-05-06 01:10 -23.62656 -46.65790 2600 ft 3 kts 246°
2026-05-06 01:10 -23.62671 -46.65816 2600 ft 5 kts 238°
2026-05-06 01:10 -23.62683 -46.65836 2600 ft 2 kts 236°
2026-05-06 01:11 -23.62685 -46.65840 2600 ft 0 kts 236°
2026-05-06 01:11 -23.62686 -46.65840 2600 ft 0 kts 236°
2026-05-06 01:11 -23.62687 -46.65843 2600 ft 0 kts 236°